[[{"header":{"parameterUnit":"m.s-1","parameterCategory":1,"la1":30.2991,"la2":30.254,"lo1":-89.0895,"lo2":-89.0444,"dy":0.0017,"dx":0.0017,"nx":28,"ny":28,"refTime":"2024-09-28T09:00:00:Z","depth":0,"parameterNumber":2,"parameterNumberName":"U-component_of_WINDS"},"data":[0,0,0,0,0,0,0,0,0,0,0,0,0,0,0,0,0,0,0,0,0,0,0,0,0,0,0,0,0,0,0,0,0,0,0,0,0,0,0,0,0,0,0,0,0,0,0,0,0,0,0,0,0,0,0,0,0,0,3.0798,3.0801,0,3.1015,3.1017,3.102,3.0988,3.0984,3.098,3.0977,3.1204,3.1214,3.1223,0,0,0,0,0,0,0,0,0,0,0,0,0,3.0361,3.037,3.0798,3.0801,3.0803,3.1015,3.1018,3.1021,3.0988,3.0984,3.0979,3.0975,3.1201,3.1213,3.1224,0,0,0,0,0,0,0,0,0,0,0,0,0,3.0562,3.0372,3.0798,3.0813,3.0816,3.1014,3.1018,3.1021,3.0989,3.0984,3.0978,3.0973,3.1198,3.1211,3.1225,3.1424,0,0,3.1269,3.1275,0,0,0,0,0,0,0,0,3.0551,3.0578,3.0808,3.0812,3.0816,3.0968,3.0947,3.1156,3.0991,3.0924,3.0977,3.097,3.1131,3.115,3.1203,3.1434,3.1444,3.127,3.1279,3.1285,3.1289,0,0,0,0,0,0,0,3.0537,3.0569,3.0884,3.0811,3.0816,3.081,3.0833,3.0987,3.1056,3.0929,3.0927,3.0953,3.1132,3.1189,3.1208,3.1448,3.127,3.1282,3.1291,3.1297,3.1853,3.1859,0,0,0,0,0,0,3.0518,3.0557,3.0877,3.089,3.0667,3.0823,3.0848,3.0925,3.1054,3.1068,3.0958,3.0951,3.1168,3.1192,3.1216,3.1457,3.1285,3.1298,3.1306,3.1847,3.1855,3.1861,0,0,0,0,0,0,3.0509,3.0547,3.0868,3.0724,3.0764,3.0836,3.0923,3.0932,3.099,3.1075,3.1088,3.1003,3.1164,3.1196,3.1372,3.1464,3.1305,3.1318,3.184,3.1849,3.1858,3.194,0,0,0,0,0,0,3.0496,3.0544,3.0618,3.0725,3.0772,3.1019,3.0929,3.0941,3.1014,3.1007,3.1121,3.1135,3.1163,3.1351,3.1386,3.1481,3.1329,3.1832,3.1844,3.1855,3.1929,3.1951,3.197,0,0,0,0,0,3.0481,3.0634,3.0622,3.0661,3.0866,3.1025,3.1051,3.1078,3.1021,3.1098,3.1153,3.1132,3.1448,3.1369,3.1409,3.1509,3.1826,3.1841,3.1854,3.192,3.1947,3.1969,0,0,0,0,0,0,3.0538,3.0648,3.0637,3.0829,3.0917,3.1019,3.1116,3.1105,3.1213,3.1203,3.1233,3.1259,3.1437,3.1491,3.1401,3.1708,3.163,3.1652,3.1667,3.1692,3.1712,3.1696,3.1341,0,0,0,0,0,3.0573,3.069,3.0781,3.0942,3.0987,3.1044,3.1114,3.1127,3.122,3.1258,3.1326,3.142,3.154,3.1619,3.1735,3.1937,3.1962,3.2026,3.2046,3.2062,3.2081,3.2193,3.2222,3.1908,3.1907,3.1907,0,0,3.0646,3.0721,3.0794,3.0955,3.1025,3.1148,3.1076,3.1209,3.13,3.1279,3.1449,3.1502,3.1609,3.1799,3.1886,3.1849,3.2174,3.208,3.2092,3.2103,3.221,3.224,3.2266,3.1917,3.1915,3.1914,0,0,3.0842,3.091,3.1052,3.1123,3.123,3.1267,3.1301,3.1405,3.1439,3.1609,3.1596,3.1706,3.1913,3.199,3.2056,3.2281,3.2266,3.2318,3.2424,3.2532,3.2557,3.2579,3.266,3.2688,3.2337,3.2338,3.2338,0,3.0921,3.1103,3.1126,3.1261,3.1333,3.1317,3.1462,3.1531,3.1671,3.1721,3.1677,3.1937,3.2008,3.2215,3.227,3.2324,3.2365,3.2306,3.2551,3.2573,3.2594,3.2672,3.2702,3.2343,3.2343,3.2342,3.2342,0,3.1195,3.1321,3.1423,3.1556,3.164,3.1779,3.1825,3.1907,3.1912,3.1955,3.2129,3.2213,3.2346,3.2396,3.2404,3.2606,3.258,3.2543,3.2465,3.2629,3.2703,3.2733,3.2351,3.2349,3.2348,3.2346,0,0,3.1433,3.1577,3.1614,3.1674,3.1791,3.189,3.2029,3.2157,3.2227,3.2324,3.2442,3.2618,3.2585,3.266,3.2676,3.2771,3.2945,3.2723,3.2726,3.2762,3.3173,3.32,3.3234,3.2935,3.2941,3.2946,3.3165,0,3.1641,3.1884,3.1909,3.2127,3.2245,3.2232,3.2353,3.2439,3.2482,3.259,3.2639,3.2763,3.2709,3.2754,3.2848,3.2904,3.3028,3.2888,3.3047,3.3052,3.3021,3.3272,3.3301,3.3504,3.3193,3.3198,3.3202,0,3.1916,3.2019,3.2248,3.2348,3.2398,3.2506,3.2626,3.2729,3.2826,3.2851,3.2935,3.2938,3.3083,3.2999,3.32,3.3104,3.3171,3.3208,3.3217,3.3233,3.3137,3.3296,3.3569,3.36,3.3247,3.3244,3.324,0,3.2067,3.2264,3.2426,3.2478,3.2599,3.2675,3.273,3.2821,3.2896,3.3002,3.3051,3.3172,3.3239,3.3334,3.3371,3.3306,3.357,3.3489,3.3596,3.3596,3.3653,3.3649,3.3941,3.3695,3.3695,3.3694,3.3694,0,3.2297,3.2438,3.2496,3.2596,3.2754,3.2782,3.2938,3.2989,3.3071,3.3182,3.3179,3.3284,3.3326,3.3438,3.3468,3.363,3.3661,3.3686,3.3693,3.3687,3.3684,3.3731,3.3718,3.3702,3.3701,3.3699,3.3698,0,3.2493,3.2537,3.2714,3.2813,3.2841,3.2953,3.3039,3.3137,3.3178,3.3319,3.3354,3.342,3.3552,3.3598,3.3759,3.3779,3.3968,3.3962,3.3934,3.3936,3.4041,3.403,3.4374,3.4421,3.4144,3.4146,3.4148,0,3.2637,3.2745,3.2855,3.2928,3.2984,3.3103,3.3179,3.3212,3.3292,3.341,3.3494,3.3624,3.373,3.3942,3.4006,3.4129,3.4127,3.4239,3.4145,3.4136,3.4129,3.4122,3.4134,3.4256,3.4259,3.4261,3.4263,0,3.2887,3.2904,3.3013,3.313,3.3221,3.3316,3.3407,3.3468,3.3514,3.3604,3.3738,3.382,3.3983,3.4113,3.4239,3.4297,3.4289,3.4292,3.4323,3.4319,3.4298,3.4311,3.3982,3.4284,3.4282,3.428,3.4279,3.4278,3.3062,3.3158,3.325,3.3372,3.3444,3.3529,3.3626,3.3679,3.379,3.3924,3.3937,3.4081,3.4177,3.4344,3.4408,3.4523,3.4492,3.4537,3.4549,3.456,3.4568,3.4279,3.4546,3.4545,3.4545,3.4544,3.4544,0,3.3313,3.3372,3.3483,3.361,3.3707,3.3688,3.3789,3.3871,3.3997,3.4086,3.419,3.4344,3.447,3.4544,3.467,3.4748,3.4748,3.478,3.4775,3.4789,3.4588,3.4548,3.4779,3.4778,3.4778,3.4778,3.4778,3.4778,3.3455,3.3615,3.3643,3.3839,3.3897,3.4036,3.4096,3.4175,3.4246,3.4417,3.4521,3.4567,3.4651,3.4783,3.4899,3.4917,3.4965,3.5,3.5016,3.4827,3.4803,3.478,3.4743,3.501,3.5011,3.5208,3.521,3.5211]},{"header":{"parameterUnit":"m.s-1","parameterCategory":1,"la1":30.2991,"la2":30.254,"lo1":-89.0895,"lo2":-89.0444,"dy":0.0017,"dx":0.0017,"nx":28,"ny":28,"refTime":"2024-09-28T09:00:00:Z","depth":0,"parameterNumber":3,"parameterNumberName":"V-component_of_WINDS"},"data":[0,0,0,0,0,0,0,0,0,0,0,0,0,0,0,0,0,0,0,0,0,0,0,0,0,0,0,0,0,0,0,0,0,0,0,0,0,0,0,0,0,0,0,0,0,0,0,0,0,0,0,0,0,0,0,0,0,0,2.4139,2.414,0,2.4318,2.432,2.4322,2.4321,2.4318,2.4316,2.4314,2.4504,2.4511,2.4518,0,0,0,0,0,0,0,0,0,0,0,0,0,2.3799,2.3806,2.4138,2.4141,2.4143,2.4318,2.432,2.4323,2.4321,2.4318,2.4315,2.4312,2.4501,2.451,2.4519,0,0,0,0,0,0,0,0,0,0,0,0,0,2.396,2.3808,2.4138,2.4163,2.4167,2.4317,2.432,2.4323,2.4322,2.4318,2.4314,2.4311,2.4498,2.4509,2.452,2.4659,0,0,2.4553,2.4558,0,0,0,0,0,0,0,0,2.3951,2.3972,2.4157,2.4161,2.4166,2.4293,2.427,2.4436,2.4323,2.4263,2.4313,2.4309,2.4437,2.4453,2.4495,2.4668,2.4676,2.4554,2.4561,2.4566,2.4569,0,0,0,0,0,0,0,2.394,2.3965,2.421,2.416,2.4165,2.4167,2.4186,2.4302,2.4368,2.4268,2.4268,2.4289,2.4439,2.4484,2.4499,2.4679,2.4554,2.4564,2.457,2.4575,2.4977,2.4981,0,0,0,0,0,0,2.3922,2.3955,2.4204,2.4215,2.4047,2.4176,2.4197,2.4256,2.4367,2.438,2.4292,2.4288,2.4467,2.4486,2.4506,2.4677,2.4565,2.4576,2.4582,2.4973,2.4978,2.4982,0,0,0,0,0,0,2.3915,2.3945,2.4197,2.4085,2.4117,2.4186,2.4252,2.4262,2.4307,2.4385,2.4397,2.4326,2.4465,2.449,2.4621,2.4683,2.4581,2.4591,2.4968,2.4974,2.498,2.5019,0,0,0,0,0,0,2.3905,2.3942,2.3994,2.4086,2.4123,2.4307,2.4256,2.4268,2.4325,2.4322,2.442,2.4433,2.4464,2.4604,2.4632,2.4696,2.4599,2.4963,2.4971,2.4978,2.5013,2.5026,2.5037,0,0,0,0,0,2.3893,2.3999,2.3997,2.4027,2.419,2.4311,2.4332,2.4364,2.433,2.4384,2.4434,2.443,2.4671,2.4618,2.4648,2.4717,2.4959,2.4968,2.4977,2.5007,2.5023,2.5037,0,0,0,0,0,0,2.3915,2.4012,2.401,2.4149,2.4221,2.431,2.4379,2.438,2.4466,2.446,2.4498,2.452,2.4651,2.4697,2.4635,2.4858,2.4811,2.4827,2.4823,2.4839,2.4851,2.4838,2.4608,0,0,0,0,0,2.3936,2.4024,2.4104,2.4219,2.4255,2.4311,2.4365,2.4383,2.4461,2.4492,2.4552,2.4629,2.4722,2.4783,2.4874,2.5019,2.5041,2.5081,2.5094,2.5103,2.5117,2.5198,2.5218,2.5013,2.5012,2.5012,0,0,2.398,2.4044,2.4097,2.4225,2.4283,2.4376,2.4337,2.4436,2.4506,2.4508,2.4634,2.4681,2.4769,2.4908,2.4972,2.4951,2.5178,2.5115,2.5122,2.5131,2.521,2.5229,2.5246,2.5019,2.5018,2.5017,0,0,2.4108,2.4164,2.4266,2.4325,2.4413,2.4449,2.4473,2.4562,2.4592,2.4719,2.4723,2.4807,2.4967,2.503,2.5083,2.5234,2.5233,2.5262,2.5327,2.5406,2.5422,2.5437,2.5492,2.5511,2.5275,2.5276,2.5276,0,2.4152,2.4289,2.4319,2.4418,2.4475,2.4479,2.4583,2.4639,2.4753,2.4793,2.4767,2.4967,2.5027,2.5181,2.5218,2.526,2.5291,2.5252,2.5417,2.5432,2.5446,2.5499,2.5519,2.5279,2.5278,2.5278,2.5278,0,2.434,2.4435,2.4507,2.4615,2.468,2.4781,2.4828,2.489,2.4903,2.4942,2.5072,2.5144,2.5249,2.5286,2.5301,2.5443,2.5427,2.5408,2.5362,2.5468,2.5518,2.5539,2.5283,2.5282,2.5281,2.528,0,0,2.4488,2.4609,2.4635,2.4684,2.4781,2.4857,2.4959,2.5059,2.5112,2.5191,2.5279,2.5413,2.5397,2.5457,2.5478,2.5547,2.5663,2.5521,2.5523,2.5546,2.5826,2.5839,2.5862,2.5663,2.5667,2.567,2.5818,0,2.4627,2.4806,2.4835,2.4993,2.5082,2.5087,2.5176,2.5247,2.5286,2.5369,2.5414,2.5509,2.5479,2.5516,2.5584,2.5635,2.572,2.5624,2.5747,2.5751,2.5725,2.5888,2.5903,2.604,2.5838,2.5841,2.5844,0,2.4813,2.4893,2.506,2.5145,2.5183,2.5263,2.5357,2.5436,2.5516,2.554,2.5607,2.562,2.5728,2.5675,2.5826,2.576,2.5812,2.5844,2.585,2.5864,2.5805,2.5908,2.6084,2.6105,2.5875,2.5873,2.587,0,2.4905,2.5055,2.5175,2.5216,2.5318,2.5374,2.5419,2.5495,2.5554,2.5638,2.5676,2.5772,2.5825,2.5899,2.5938,2.5896,2.6087,2.6037,2.6111,2.611,2.6152,2.6149,2.6341,2.6184,2.6183,2.6183,2.6183,0,2.5057,2.5159,2.5217,2.5291,2.5405,2.5439,2.5552,2.5597,2.5664,2.5748,2.5758,2.5837,2.5883,2.5969,2.6001,2.6121,2.6145,2.6169,2.6176,2.6168,2.6166,2.6204,2.6196,2.6188,2.6187,2.6186,2.6185,0,2.518,2.5223,2.5353,2.5438,2.5462,2.5543,2.5616,2.5689,2.5727,2.5833,2.586,2.5922,2.6024,2.6069,2.6196,2.6217,2.6354,2.6355,2.6327,2.633,2.6401,2.6394,2.6625,2.6658,2.6478,2.648,2.6481,0,2.5275,2.5353,2.5446,2.5501,2.5547,2.5637,2.5697,2.5733,2.5795,2.5891,2.5953,2.6054,2.6137,2.63,2.6357,2.6454,2.6457,2.6531,2.6472,2.6462,2.646,2.6455,2.6464,2.6543,2.6545,2.6546,2.6547,0,2.5439,2.5456,2.554,2.5632,2.5702,2.5776,2.5849,2.5895,2.5943,2.6012,2.6115,2.6179,2.6307,2.6408,2.6508,2.6557,2.6562,2.6565,2.6588,2.6581,2.6562,2.6574,2.6357,2.656,2.6559,2.6558,2.6557,2.6557,2.5552,2.5622,2.5697,2.5791,2.5849,2.5917,2.5989,2.6036,2.6122,2.6227,2.6244,2.6354,2.6433,2.6568,2.662,2.6708,2.6691,2.6723,2.6731,2.6739,2.6744,2.6547,2.6726,2.6726,2.6726,2.6726,2.6725,0,2.5718,2.5766,2.5851,2.5952,2.6026,2.6021,2.6101,2.6164,2.626,2.6332,2.6413,2.6532,2.663,2.6695,2.6794,2.6852,2.6857,2.6878,2.6874,2.6886,2.6753,2.6724,2.6872,2.6872,2.6872,2.6872,2.6872,2.6872,2.5812,2.593,2.5956,2.6104,2.6152,2.6259,2.6305,2.6369,2.6426,2.6558,2.6638,2.6679,2.6749,2.6854,2.6944,2.696,2.6997,2.7019,2.7035,2.691,2.6895,2.6881,2.6853,2.7026,2.7027,2.7161,2.7162,2.7163]}]]